Location: LDNL
(36.4545°S, 141.6685°E)
Time: 11:38:35
(UTC+10:00)

Tiros 1 despin weight - Pass Details

Date: 16 August 2022
Orbit: 590 x 639 km, 48.2° (Epoch: 23 September)

Event Time Altitude Azimuth Distance (km) Brightness Sun altitude
Rises 05:35:53 0° 238° (WSW) 2,959 - -20.5°
Reaches altitude 10° 05:38:15 10° 241° (WSW) 2,048 - -20.1°
Exits shadow 05:41:37 43° 262° (W) 904 ? -19.4°
Maximum altitude 05:42:55 62° 320° (NW) 727 ? -19.1°
Drops below altitude 10° 05:47:32 10° 40° (NE) 2,028 ? -18.2°
Sets 05:49:52 0° 43° (NE) 2,927 ? -17.7°
